Regional Weather Roundup
Issued by NWS

Home | Current Version | Previous Version | Text Only | Print | Product List | Glossary On
Versions: 1 2 3 4 5 6 7 8 9 10 11 12 13 14 15 16 17 18 19 20 21 22 23 24 25 26 27 28 29 30 31 32 33 34 35 36 37 38 39 40 41 42 43 44 45 46 47 48 49 50
000
ASUS43 KLSX 301659
RWRMO

WEATHER SUMMARY FOR MISSOURI
NATIONAL WEATHER SERVICE SPRINGFIELD MO
1200 PM CDT SUN APR 30 2017

NOTE: "FAIR" INDICATES FEW OR NO CLOUDS BELOW 12,000 FEET WITH NO
       SIGNIFICANT WEATHER AND/OR OBSTRUCTIONS TO VISIBILITY.
       CURRENT SKY AND/OR WEATHER CONDITIONS ARE NOT AVAILABLE FOR
       CHILLICOTHE AND FARMINGTON.

MOZ001>031-035>038-043-044-053-054-301800-
...NORTHERN AND WESTERN MISSOURI...

CITY           SKY/WX    TMP DP  RH WIND       PRES   REMARKS
KANSAS CTY INT LGT RAIN  51  50  96 SE10      29.51F VSB 1
KANSAS C DTWN  CLOUDY   N/A N/A N/A CALM      29.51F HAZE
LEE`S SUMMIT   LGT RAIN  53  53 100 E3        29.51F FOG
ST JOSEPH      LGT RAIN  48  48 100 S14G25    29.52R FOG
CHILLICOTHE      N/A     49  48  97 NE9G21    29.55F
KIRKSVILLE     TSTM      46  31  55 NE14      29.67F

$$
MOZ066>068-077>081-088>096-101>105-301800-
...SOUTHWEST MISSOURI...

CITY           SKY/WX    TMP DP  RH WIND       PRES   REMARKS
SPRINGFIELD    CLOUDY    64  58  80 SW22      29.54R
JOPLIN         CLOUDY    58  51  78 S17G23    29.55F
BRANSON        CLOUDY    64  55  72 S12G18    29.59R

$$
MOZ032>034-039>042-045>050-055>058-069>072-301800-
...CENTRAL MISSOURI...

CITY           SKY/WX    TMP DP  RH WIND       PRES   REMARKS
COLUMBIA       LGT RAIN  65  63  93 SE16G29   29.55F
JEFFERSON CITY CLOUDY    68  62  81 E20G28    29.54F
ROLLA          CLOUDY    64  32  30 SE20G28   29.57F
SEDALIA        CLOUDY    66  64  93 SE16G29   29.50F
OSAGE BEACH    CLOUDY    66  64  93 SE10G17   29.52F

$$
MOZ051-052-059>065-301800-
...EAST CENTRAL MISSOURI...

CITY           SKY/WX    TMP DP  RH WIND       PRES   REMARKS
ST LOUIS INTL  RAIN      64  61  90 E15       29.71F
SPIRIT OF STL  LGT RAIN  64  63  96 E10       29.67F
ST CHARLES     HVY RAIN  63  63 100 SE9       29.69F FOG

$$
MOZ072>076-082>087-097>100-106>115-301800-
...SOUTH CENTRAL AND SOUTHEAST MISSOURI...

CITY           SKY/WX    TMP DP  RH WIND       PRES   REMARKS
CAPE GIRARDEAU CLOUDY    68  63  84 SE12      29.74S
FARMINGTON     CLOUDY    65  64  97 SE14G20   29.70F
POPLAR BLUFF   LGT RAIN  68  67  96 SE9       29.70F

$$



USA.gov is the U.S. government's official web portal to all federal, state and local government web resources and services.